DW8722 Weather Reports


Display with metric or nautical units.
time (UTC)temp
F
wind
direction
speed
MPH
gust
MPH
rain 1hr
in
rain 24hr
in
rain mn
in
humidity
%
barometer
mb
20240224065902 50 301 3.0 8.0 0.00 0.00 0.00 61 1019.7
20240224064846 50 289 5.0 8.0 0.00 0.00 0.00 61 1019.6
20240224063854 50 271 4.0 8.0 0.00 0.00 0.00 61 1019.6
20240224061653 50 277 4.0 7.0 0.00 0.00 0.00 61 1019.5
20240224060714 50 271 3.0 6.0 0.00 0.00 0.00 60 1019.4
20240224053405 51 265 3.0 6.0 0.00 0.00 0.00 59 1019.3
20240224052406 51 273 3.0 6.0 0.00 0.00 0.00 59 1019.4
20240224051345 51 265 3.0 6.0 0.00 0.00 0.00 59 1019.4
20240224050343 52 257 3.0 6.0 0.00 0.00 0.00 58 1019.3
20240224045351 52 263 3.0 5.0 0.00 0.00 0.00 57 1019.4
20240224044411 52 245 3.0 4.0 0.00 0.00 0.00 55 1019.4
20240224043414 52 251 3.0 6.0 0.00 0.00 0.00 55 1019.4
20240224042416 52 248 3.0 6.0 0.00 0.00 0.00 54 1019.5
20240224041426 52 242 3.0 6.0 0.00 0.00 0.00 53 1019.5
20240224040352 52 251 3.0 5.0 0.00 0.00 0.00 53 1019.4
20240224034256 51 261 2.0 3.0 0.00 0.00 0.00 54 1019.3
20240224033256 52 262 2.0 3.0 0.00 0.00 0.00 53 1019.2
20240224032228 54 261 2.0 3.0 0.00 0.00 0.00 54 1019.2
20240224031240 55 260 2.0 4.0 0.00 0.00 0.00 50 1019.1
20240224030238 56 259 3.0 6.0 0.00 0.00 0.00 47 1018.9
20240224025230 55 245 4.0 6.0 0.00 0.00 0.00 47 1018.9
20240224024255 55 242 3.0 5.0 0.00 0.00 0.00 49 1018.8
20240224022130 56 230 3.0 6.0 0.00 0.00 0.00 47 1018.7
20240224021059 56 241 3.0 6.0 0.00 0.00 0.00 45 1018.7
20240224020044 56 276 3.0 5.0 0.00 0.00 0.00 45 1018.7
20240224013927 57 328 3.0 4.0 0.00 0.00 0.00 45 1018.5
20240224012856 58 329 2.0 4.0 0.00 0.00 0.00 42 1018.4
20240224011849 60 329 2.0 4.0 0.00 0.00 0.00 40 1018.2
20240224010831 61 329 2.0 3.0 0.00 0.00 0.00 39 1018.1
20240224005844 61 329 2.0 3.0 0.00 0.00 0.00 38 1018.0
20240224002627 64 333 3.0 4.0 0.00 0.00 0.00 36 1017.5
20240224001646 64 337 3.0 5.0 0.00 0.00 0.00 34 1017.3
20240224000628 66 336 4.0 8.0 0.00 0.00 0.00 33 1017.2
20240223234500 67 311 5.0 12.0 0.00 0.00 0.00 30 1016.9
20240223233512 68 333 7.0 16.0 0.00 0.00 0.00 30 1016.9
20240223232537 69 311 8.0 16.0 0.00 0.00 0.00 28 1016.7
20240223231553 69 321 8.0 15.0 0.00 0.00 0.00 29 1016.7
20240223230541 69 320 10.0 18.0 0.00 0.00 0.00 29 1016.8
20240223225559 70 336 8.0 18.0 0.00 0.00 0.00 29 1016.6
20240223224527 70 290 9.0 21.0 0.00 0.00 0.00 28 1016.7
20240223223535 70 299 12.0 21.0 0.00 0.00 0.00 28 1016.6
20240223222515 70 305 10.0 19.0 0.00 0.00 0.00 28 1016.5
20240223221443 70 336 10.0 19.0 0.00 0.00 0.00 28 1016.5
20240223215345 70 292 10.0 19.0 0.00 0.00 0.00 30 1016.7
20240223214333 70 300 11.0 23.0 0.00 0.00 0.00 28 1016.8
20240223213309 70 307 10.0 18.0 0.00 0.00 0.00 30 1016.9
20240223212312 70 286 11.0 18.0 0.00 0.00 0.00 29 1017.1
20240223211314 70 311 10.0 22.0 0.00 0.00 0.00 30 1017.1
20240223210259 70 286 11.0 22.0 0.00 0.00 0.00 32 1017.3
20240223205256 70 315 11.0 19.0 0.00 0.00 0.00 30 1017.3
20240223204222 70 336 10.0 19.0 0.00 0.00 0.00 31 1017.5
20240223203233 69 274 11.0 21.0 0.00 0.00 0.00 34 1017.5
20240223201035 69 331 10.0 23.0 0.00 0.00 0.00 30 1017.7
20240223200012 69 329 12.0 23.0 0.00 0.00 0.00 31 1017.9
20240223193828 69 329 11.0 18.0 0.00 0.00 0.00 32 1018.0
20240223191629 69 338 9.0 19.0 0.00 0.00 0.00 34 1018.4
20240223190600 69 340 11.0 19.0 0.00 0.00 0.00 32 1018.6
20240223185622 68 316 11.0 23.0 0.00 0.00 0.00 32 1018.8
20240223184554 68 340 12.0 23.0 0.00 0.00 0.00 33 1018.9
20240223182351 68 333 11.0 21.0 0.00 0.00 0.00 33 1019.4
20240223181324 67 310 13.0 23.0 0.00 0.00 0.00 36 1019.6
20240223180300 67 324 11.0 23.0 0.00 0.00 0.00 36 1019.7
20240223175227 67 315 10.0 20.0 0.00 0.00 0.00 35 1019.8
20240223174236 66 294 10.0 18.0 0.00 0.00 0.00 37 1019.9
20240223173256 67 302 9.0 19.0 0.00 0.00 0.00 38 1020.0
20240223172239 66 325 11.0 19.0 0.00 0.00 0.00 38 1020.1
20240223171248 66 335 9.0 18.0 0.00 0.00 0.00 39 1020.0
20240223170305 65 330 10.0 16.0 0.00 0.00 0.00 41 1020.0
20240223165242 65 308 8.0 16.0 0.00 0.00 0.00 42 1019.8
20240223164305 64 348 7.0 11.0 0.00 0.00 0.00 44 1019.8
20240223163236 63 304 8.0 15.0 0.00 0.00 0.00 47 1019.8
20240223162224 63 301 7.0 15.0 0.00 0.00 0.00 47 1019.8
20240223161153 62 328 8.0 12.0 0.00 0.00 0.00 49 1019.7
20240223160217 61 349 7.0 12.0 0.00 0.00 0.00 49 1019.6
20240223155223 61 313 6.0 10.0 0.00 0.00 0.00 51 1019.6
20240223154228 60 355 7.0 11.0 0.00 0.00 0.00 52 1019.6
20240223153154 60 348 6.0 12.0 0.00 0.00 0.00 53 1019.6
20240223152216 59 312 7.0 12.0 0.00 0.00 0.00 54 1019.6
20240223151144 58 339 6.0 12.0 0.00 0.00 0.00 54 1019.3
20240223150110 57 318 6.0 13.0 0.00 0.00 0.00 56 1019.4
20240223143935 56 338 5.0 10.0 0.00 0.00 0.00 59 1019.0
20240223142908 55 345 5.0 12.0 0.00 0.00 0.00 60 1018.7
20240223141846 54 323 5.0 12.0 0.00 0.00 0.00 61 1018.6
20240223140835 54 337 6.0 13.0 0.00 0.00 0.00 62 1018.4
20240223135826 53 340 7.0 13.0 0.00 0.00 0.00 63 1018.1
20240223133631 51 355 7.0 13.0 0.00 0.00 0.00 66 1017.6
20240223125153 49 338 3.0 7.0 0.00 0.00 0.00 69 1017.1
20240223124143 50 326 3.0 6.0 0.00 0.00 0.00 68 1017.0
20240223123135 50 324 4.0 7.0 0.00 0.00 0.00 67 1016.9
20240223122119 51 331 4.0 8.0 0.00 0.00 0.00 67 1016.8
20240223121046 51 331 5.0 10.0 0.00 0.00 0.00 66 1016.5
20240223120020 51 320 5.0 10.0 0.00 0.00 0.00 65 1016.4
20240223115045 51 338 6.0 10.0 0.00 0.00 0.00 65 1016.2
20240223114057 51 314 6.0 11.0 0.00 0.00 0.00 65 1015.8
20240223113113 52 327 6.0 11.0 0.00 0.00 0.00 66 1015.9
20240223112055 52 321 6.0 10.0 0.00 0.00 0.00 66 1015.7
20240223111102 52 344 6.0 10.0 0.00 0.00 0.00 66 1015.5
20240223110118 51 317 6.0 10.0 0.00 0.00 0.00 67 1015.5
20240223105135 51 313 5.0 9.0 0.00 0.00 0.00 68 1015.4
20240223104111 51 324 4.0 9.0 0.00 0.00 0.00 68 1015.2
20240223103111 51 322 3.0 7.0 0.00 0.00 0.00 68 1015.5
20240223100936 51 307 3.0 7.0 0.00 0.00 0.00 69 1015.3
20240223095958 52 305 4.0 7.0 0.00 0.00 0.00 68 1015.3
20240223095014 52 298 3.0 6.0 0.00 0.00 0.00 68 1015.2
20240223094020 52 311 4.0 8.0 0.00 0.00 0.00 68 1015.2
20240223092958 53 314 4.0 8.0 0.00 0.00 0.00 68 1015.1
20240223092007 53 317 3.0 7.0 0.00 0.00 0.00 68 1015.0
20240223091029 53 311 3.0 6.0 0.00 0.00 0.00 67 1014.9
20240223084909 54 325 3.0 8.0 0.00 0.00 0.00 66 1014.8
20240223083835 55 326 4.0 8.0 0.00 0.00 0.00 66 1014.7
20240223082824 55 307 4.0 8.0 0.00 0.00 0.00 66 1014.8
20240223081844 55 318 4.0 9.0 0.00 0.00 0.00 66 1014.8
20240223080825 56 333 5.0 10.0 0.00 0.00 0.00 66 1014.8
20240223075835 56 321 6.0 10.0 0.00 0.00 0.00 66 1014.6
20240223074808 56 316 5.0 10.0 0.00 0.00 0.00 66 1014.6
20240223073820 57 327 6.0 10.0 0.00 0.00 0.00 65 1014.4
20240223072829 57 317 6.0 11.0 0.00 0.00 0.00 65 1014.4
20240223071849 57 319 7.0 11.0 0.00 0.00 0.00 65 1014.4
20240223070849 58 327 6.0 12.0 0.00 0.00 0.00 65 1014.2